User: anonymous   Login
Location: Robert Brownlee Observatory
(34.2308°N, 117.2089°W)
Time: 02:33:59
(UTC-08:00)
Language:

Cosmos 1943 - Orbit

View from above orbital plane
View from above orbital plane
View from above satellite
View from above satellite

Ground track
Ground track

The orbit data is extracted from the following two-line orbital elements,

1 19119U 88039A   17345.59880275 -.00000265 +00000-0 -11217-3 0  9993
2 19119 071.0043 089.2119 0010297 159.8096 291.8329 14.15105121526924
Epoch (UTC): 11 December 2017 14:22:16
Eccentricity: 0.0010297
inclination: 71.0043°
perigee height: 834 km
apogee height: 849 km
right ascension of ascending node: 89.2119°
argument of perigee: 159.8096°
revolutions per day: 14.15105121
mean anomaly at epoch: 291.8329°
orbit number at epoch: 52692

The dashed part of the orbit path shows where the satellite is in the earth's shadow,  

DLR